TimeMST,TemperatureF,Dew PointF,Humidity,Sea Level PressureIn,VisibilityMPH,Wind Direction,Wind SpeedMPH,Gust SpeedMPH,PrecipitationIn,Events,Conditions,WindDirDegrees,DateUTC
12:11 AM,55.4,55.4,100,29.98,7.0,Calm,Calm,-,N/A,,Overcast,0,2013-01-27 07:11:00
12:53 AM,55.9,55.0,97,29.95,8.0,Calm,Calm,-,N/A,,Overcast,0,2013-01-27 07:53:00
1:19 AM,55.4,55.4,100,29.97,8.0,Calm,Calm,-,N/A,,Overcast,0,2013-01-27 08:19:00
1:53 AM,55.9,55.0,97,29.94,6.0,Calm,Calm,-,N/A,,Overcast,0,2013-01-27 08:53:00
2:53 AM,55.9,55.0,97,29.94,7.0,Calm,Calm,-,N/A,,Overcast,0,2013-01-27 09:53:00
3:53 AM,55.9,55.0,97,29.94,5.0,Calm,Calm,-,0.00,Rain,Light Rain,0,2013-01-27 10:53:00
4:36 AM,55.4,55.4,100,29.96,4.0,ESE,3.5,-,0.01,Rain,Light Rain,110,2013-01-27 11:36:00
4:53 AM,55.9,55.0,97,29.93,2.0,SE,3.5,-,0.02,Rain,Light Rain,130,2013-01-27 11:53:00
5:09 AM,55.4,55.4,100,29.95,4.0,SE,4.6,-,0.01,Rain,Light Rain,130,2013-01-27 12:09:00
5:53 AM,55.9,55.0,97,29.93,6.0,SE,4.6,-,0.01,,Overcast,130,2013-01-27 12:53:00
6:01 AM,55.4,55.4,100,29.96,4.0,SE,3.5,-,0.00,Rain,Light Rain,140,2013-01-27 13:01:00
6:53 AM,55.9,55.0,97,29.94,7.0,Calm,Calm,-,0.01,,Overcast,0,2013-01-27 13:53:00
7:31 AM,55.4,53.6,94,29.97,6.0,East,4.6,-,0.00,Rain,Light Rain,100,2013-01-27 14:31:00
7:53 AM,55.9,55.0,97,29.94,5.0,ESE,3.5,-,0.00,,Overcast,120,2013-01-27 14:53:00
8:24 AM,55.4,55.4,100,29.97,6.0,SE,6.9,-,N/A,,Overcast,130,2013-01-27 15:24:00
8:53 AM,57.0,55.0,93,29.95,7.0,SE,4.6,-,N/A,,Overcast,130,2013-01-27 15:53:00
9:07 AM,57.2,55.4,94,29.98,7.0,SE,4.6,-,N/A,,Overcast,140,2013-01-27 16:07:00
9:23 AM,57.2,55.4,94,29.99,8.0,SE,6.9,-,N/A,,Overcast,140,2013-01-27 16:23:00
9:53 AM,57.0,55.9,96,29.96,4.0,SE,8.1,-,0.03,Rain,Rain,130,2013-01-27 16:53:00
10:02 AM,57.2,55.4,94,29.99,1.2,SE,8.1,-,0.04,Rain,Rain,130,2013-01-27 17:02:00
10:07 AM,57.2,55.4,94,29.99,2.5,SE,6.9,-,0.04,Rain,Light Rain,130,2013-01-27 17:07:00
10:14 AM,57.2,55.4,94,29.99,6.0,SE,5.8,-,0.04,Rain,Light Rain,130,2013-01-27 17:14:00
10:53 AM,57.9,55.9,93,29.96,8.0,SE,4.6,-,0.04,,Overcast,140,2013-01-27 17:53:00
11:51 AM,60.8,57.2,88,29.98,10.0,South,8.1,-,0.03,,Scattered Clouds,190,2013-01-27 18:51:00
11:53 AM,60.1,57.0,90,29.94,10.0,South,6.9,-,0.03,,Scattered Clouds,190,2013-01-27 18:53:00
12:12 PM,60.8,55.4,82,29.97,10.0,South,8.1,-,N/A,,Mostly Cloudy,190,2013-01-27 19:12:00
12:41 PM,60.8,55.4,82,29.95,10.0,SW,9.2,-,N/A,,Overcast,220,2013-01-27 19:41:00
12:53 PM,61.0,55.0,81,29.92,10.0,SW,10.4,-,N/A,,Overcast,220,2013-01-27 19:53:00
1:11 PM,62.6,55.4,77,29.94,10.0,SSW,8.1,-,N/A,,Overcast,210,2013-01-27 20:11:00
1:42 PM,59.0,55.4,88,29.93,1.0,West,6.9,18.4,0.13,Rain,Heavy Rain,260,2013-01-27 20:42:00
1:53 PM,59.0,55.0,87,29.90,10.0,WSW,8.1,-,0.13,,Overcast,240,2013-01-27 20:53:00
2:53 PM,61.0,55.9,83,29.88,10.0,South,5.8,-,0.01,,Mostly Cloudy,180,2013-01-27 21:53:00
3:53 PM,62.1,54.0,75,29.87,10.0,SW,8.1,-,0.00,Rain,Light Rain,220,2013-01-27 22:53:00
4:31 PM,60.8,55.4,82,29.90,10.0,SSW,5.8,-,0.01,Rain,Light Rain,200,2013-01-27 23:31:00
4:44 PM,60.8,53.6,77,29.90,10.0,SSW,5.8,-,0.01,,Overcast,200,2013-01-27 23:44:00
4:53 PM,61.0,53.1,75,29.87,10.0,SSW,4.6,-,0.01,,Overcast,200,2013-01-27 23:53:00
5:14 PM,60.8,53.6,77,29.89,10.0,Calm,Calm,-,N/A,,Overcast,0,2013-01-28 00:14:00
5:53 PM,61.0,55.0,81,29.86,10.0,WSW,8.1,-,N/A,,Overcast,250,2013-01-28 00:53:00
6:03 PM,60.8,55.4,82,29.89,10.0,WSW,5.8,-,0.00,Rain,Light Rain,250,2013-01-28 01:03:00
6:53 PM,60.1,55.0,83,29.87,10.0,SSW,4.6,-,0.00,,Mostly Cloudy,200,2013-01-28 01:53:00
7:53 PM,59.0,55.0,87,29.87,10.0,South,3.5,-,N/A,,Mostly Cloudy,190,2013-01-28 02:53:00
8:53 PM,57.9,55.0,90,29.87,10.0,SW,4.6,-,0.05,,Overcast,230,2013-01-28 03:53:00
9:15 PM,57.2,55.4,94,29.90,5.0,SW,5.8,-,0.02,Rain,Rain,230,2013-01-28 04:15:00
9:53 PM,57.0,55.0,93,29.87,10.0,Calm,Calm,-,0.02,,Mostly Cloudy,0,2013-01-28 04:53:00
10:00 PM,57.2,55.4,94,29.90,10.0,Calm,Calm,-,N/A,,Partly Cloudy,0,2013-01-28 05:00:00
10:53 PM,55.9,53.1,90,29.87,10.0,WSW,6.9,-,N/A,,Mostly Cloudy,250,2013-01-28 05:53:00
11:53 PM,57.0,52.0,83,29.86,10.0,Calm,Calm,-,N/A,,Overcast,0,2013-01-28 06:53:00